STARLINK-5719, 55609

Orbit data source: Space-Track

STARLINK-5719, 55609 is a payload satellite owned by SpaceX/Seattle (US) in LEO that was launched on Sun, 12 Feb 2023 UTC via an FALCON 9 launch vehicle from the Air Force Eastern Test Range (AFETR). Payload-class satellites include a variety of spacecraft equipped with specific instruments for various scientific and technological missions. These include communications satellites like Starlink; space stations such as the ISS; scientific satellites like the Hubble; Earth observation satellites from companies like Planet Labs, Umbra, and HawkEye 360; GPS; miniature CubeSats for education and research; and military/defense satellites.

Loading next visibility...
Identifier
55609, 2023-020AS
Orbit
LEO
Country
Flag of USUS
Related business
Manufacturer
SpaceX/Seattle
Mission
Operational Commercial Communications
Bus & Motor
STARLINK, Unknown motor
Mass
305 kg wet, ~290 kg dry
Launch date (UTC)
2023-02-12 (3 years ago)
Launch vehicle
FALCON 9
Launch site
Air Force Eastern Test Range (AFETR)
Object type
Payload
Rocket body
Debris
Shape & HBR
Box + 1 Pan, 10.1 m
Radar Cross Section
13.562 m², Large (>1 m²)

Expand to show TLE details & history
Last TLE update: 11 hours ago

TLE from 11 hours ago
0 STARLINK-5719
1 55609U 23020AS  26061.95512729 -.00003952  00000-0 -27750-3 0  9992
2 55609  43.0049  28.4817 0001260 247.2299 112.8410 15.02554518168054
Epoch: 2026-03-02T22:55Z
TLE epoch observation values (Epoch: 2026-03-02T22:55:22.997Z)
Latitude
-0.00006°
Longitude
-116.1053°
Altitude
559.14 km
Speed
7.583 km/s
True Right ascension
01h 53m 55s
True Declination
0° 00' 00"
Sunlit
Object was in daylight at epoch
Visualization orbit readout
Latitude
Unknown
Longitude
Unknown
Altitude
Unknown
Speed
Unknown
Apparent Right ascension
Unknown
Apparent Declination
Unknown
Sunlit
N/A
Visualization observer readout
Local Sidereal Time
13:14:31
Azimuth
Unknown
Elevation
Unknown
Doppler factor
Unknown
Orbital elements
Apogee altitude
561.82 km
Perigee altitude
560.071 km
Semi-major axis
6,939.083 km
Eccentricity
0.00013
Inclination
43.0049°
RAAN
28.4817°
Arg. of periapsis
247.2299°
True anomaly
112.85431°
Mean anomaly
112.841°
Eccentric anomaly
112.84765°
Mean motion
3.75483 °/min
Orbital period
95.88 mins
BSTAR
-0.0002775
Loading maneuver chart data...
Computing Atmospheric mass density...
Loading historical data...
Loading historical data...
Loading historical data...
Loading historical data...
Loading historical data...
Loading historical data...
Loading historical data...

Documentation

Showing up to 5 results
|